Location: Alsip
(41.6689°N, 87.7387°W)
Time: 14:38:48
(UTC+00:00)

Cosmos 2333 Rocket - Pass Details

Date: 14 July 2020
Orbit: 837 x 864 km, 70.8° (Epoch: 13 August)

Event Time Altitude Azimuth Distance (km) Brightness Sun altitude
Rises 01:47:28 0° 205° (SSW) 3,390 5.2 -4.4°
Reaches altitude 10° 01:49:54 10° 206° (SSW) 2,462 4.5 -4.8°
Maximum altitude 01:55:34 83° 293° (WNW) 864 2.4 -5.7°
Drops below altitude 10° 02:01:20 10° 23° (NNE) 2,497 4.8 -6.5°
Sets 02:03:48 0° 24° (NNE) 3,441 5.6 -6.9°
